Temp
52 51 51 50 49 48 47 47 47 47 47 47 46 45 45 44 44 44 44 44 44 43 44 44 44 44 43 43 42 41 40 40 40 40 41 41 40 40 40 39 39 39 39 39 39 39 38 38 37 37 36 36 36 37 37 37 37 37 37 37 36 36 36 36 35 35 36 36 36
52 52 51 50 50 48 47 46 46 46 46 46 46 46 45 44 44 44 44 44 44 44 44 44 44 44 44 44 43 42 41 40 40 40 40 40 40 39 39 39 39 39 39 39 39 38 38 38 37 36 35 35 36 36 36 36 36 36 36 36 36 36 36 35 35 35 36 35 36
52 51 51 50 49 48 47 46 45 46 46 46 46 45 45 44 44 44 44 45 45 45 44 44 44 44 44 43 43 42 41 40 40 39 39 39 39 39 39 39 39 39 38 38 38 37 37 37 36 36 35 34 35 35 35 37 36 36 35 35 36 36 35 35 35 35 35 35 35
52 51 50 49 49 48 47 46 46 46 46 46 46 45 44 44 44 44 44 45 45 44 44 44 44 44 44 43 43 42 41 40 40 39 39 39 39 39 39 39 39 39 38 37 37 37 37 37 36 35 35 34 34 35 35 36 36 35 35 35 35 35 35 34 35 35 35 35 35
51 50 50 49 48 48 47 47 46 46 46 45 45 44 43 43 43 44 44 44 44 44 44 44 44 43 43 43 42 42 41 41 40 39 39 39 39 39 39 39 39 38 38 37 37 36 37 37 36 35 34 34 34 34 35 36 35 35 35 35 35 35 34 34 35 35 35 34 35
51 50 49 48 48 48 47 47 47 46 46 45 44 44 43 42 43 43 43 43 44 44 44 44 44 43 43 42 42 41 40 40 39 39 38 38 39 39 39 39 38 37 37 37 36 36 36 36 35 35 34 34 34 35 35 36 35 34 34 34 34 34 34 34 34 35 35 34 34
51 50 49 48 48 47 46 46 46 46 46 45 44 43 43 42 43 43 43 44 44 44 44 43 43 42 42 41 40 40 39 39 39 39 38 38 39 39 39 38 37 37 36 36 36 36 36 36 34 34 34 34 34 34 35 35 34 34 33 33 34 34 34 33 34 34 34 34 34
51 50 49 48 47 46 46 46 46 46 45 44 44 44 43 43 43 43 44 44 44 43 43 42 42 41 41 40 39 39 39 38 38 38 38 38 39 39 38 37 36 36 36 36 35 35 35 35 34 34 33 34 34 34 34 33 33 32 32 32 33 33 33 32 32 33 33 33 32
50 50 49 48 47 46 46 45 45 45 45 44 44 44 44 43 43 43 43 43 44 43 42 41 41 41 40 39 39 38 38 37 37 37 38 38 38 38 37 36 35 35 35 35 35 35 35 34 34 33 33 33 33 33 33 32 31 31 31 31 32 33 33 33 33 33 33 32 31
49 49 48 48 47 46 45 45 45 45 45 44 44 44 44 44 43 43 43 43 43 43 42 41 40 40 40 39 38 38 37 37 37 37 37 37 37 37 36 35 34 34 34 35 35 35 34 34 33 33 33 33 33 33 32 32 30 30 30 31 31 32 32 33 33 33 32 31 30
48 48 48 47 46 46 45 44 44 44 44 44 44 44 44 44 43 43 43 43 42 42 41 40 40 39 39 38 37 37 37 37 37 37 37 37 36 35 35 34 33 33 34 34 34 34 34 33 32 32 32 33 33 32 32 31 30 29 29 30 30 30 31 32 32 32 32 31 30
48 47 47 46 45 44 44 43 43 43 43 43 43 43 43 43 43 43 42 42 41 41 40 40 39 39 38 37 37 37 37 37 37 37 37 36 35 35 34 33 33 33 33 34 34 33 33 32 31 31 31 32 32 32 31 30 29 29 29 29 30 30 30 30 31 31 31 31 30
47 47 46 45 44 43 42 41 41 41 41 41 42 42 42 42 42 42 42 41 40 40 40 39 39 38 38 37 37 37 37 37 37 37 36 36 35 34 33 32 32 32 33 33 33 33 32 31 31 30 31 31 32 31 30 29 29 28 28 28 29 29 29 29 30 30 30 30 30
47 46 45 44 43 42 41 40 40 40 40 40 41 41 41 41 42 41 41 40 39 39 39 39 39 38 38 37 37 37 37 37 37 37 36 35 35 34 32 31 31 31 32 32 32 32 31 31 31 30 30 31 31 31 30 29 29 28 28 28 28 28 28 29 29 29 29 29 29
47 46 45 44 43 41 40 39 39 40 40 40 40 41 41 41 41 41 40 39 39 39 39 38 38 38 38 37 37 37 37 37 37 36 35 35 34 33 32 31 30 31 31 31 32 31 31 30 30 31 30 30 30 30 29 29 29 29 28 28 28 28 28 28 29 29 28 28 28
46 45 44 44 42 41 40 39 39 40 40 40 40 40 40 40 40 40 39 38 38 38 38 37 37 37 37 37 37 37 37 37 36 35 34 34 33 32 32 30 29 30 30 30 31 30 30 30 30 31 31 30 30 29 29 29 29 29 29 29 28 28 28 28 28 28 28 28 28
45 44 44 43 42 41 40 40 40 40 40 40 40 39 39 39 39 39 39 38 38 37 37 37 36 36 36 37 37 37 36 36 35 34 33 33 32 32 31 30 29 29 29 29 30 30 30 30 30 31 30 30 29 29 29 29 29 29 29 29 29 28 28 28 28 28 28 28 28
44 44 43 42 41 40 40 40 40 40 40 40 39 39 39 39 38 38 38 38 37 37 36 36 36 36 36 36 36 36 35 35 34 34 33 32 32 31 30 30 29 29 29 29 29 29 29 29 30 30 30 30 29 29 29 29 29 29 29 29 29 28 28 28 28 28 28 28 28
45 44 43 42 41 40 40 39 39 39 39 40 39 39 38 38 38 37 37 37 37 37 36 35 35 35 35 35 35 35 35 34 33 33 33 32 32 31 30 30 29 28 28 28 28 29 29 29 30 30 30 30 29 29 29 29 29 29 29 29 28 28 28 28 28 28 28 29 29
46 45 44 43 42 41 40 39 39 39 39 40 39 38 38 38 37 37 36 36 37 37 36 35 35 35 35 35 34 34 34 34 33 32 32 32 31 31 30 30 29 28 28 28 28 28 29 29 30 30 30 30 29 29 29 29 29 28 28 28 28 28 28 28 28 28 29 29 29
46 45 45 44 43 42 41 40 40 40 39 39 39 38 38 37 37 37 36 36 37 37 36 35 35 34 34 34 34 33 33 34 33 32 32 31 31 31 30 30 29 28 28 28 28 28 29 29 30 30 30 29 29 28 28 28 28 28 28 28 28 28 28 29 29 29 29 29 29
45 45 45 44 44 43 41 41 40 40 39 39 39 38 38 37 37 37 36 36 36 36 35 35 35 34 34 34 33 33 33 34 33 32 32 31 31 31 31 30 29 28 27 27 27 28 28 29 30 29 29 28 28 28 28 28 28 28 28 29 29 29 29 29 30 29 29 29 29
45 45 45 44 44 43 42 41 40 40 39 39 39 38 38 37 37 36 36 36 35 35 35 35 35 35 34 34 33 33 33 33 32 32 32 32 31 31 31 30 29 28 27 27 27 28 28 28 29 29 28 28 27 27 27 28 28 28 28 28 28 29 29 30 30 30 30 30 30
46 45 45 44 44 43 42 41 40 39 39 39 38 38 38 38 37 36 35 35 35 34 34 34 35 35 34 34 33 33 32 32 32 32 32 32 32 31 30 30 29 28 28 28 28 28 28 28 28 28 28 28 27 27 27 27 28 28 28 28 28 29 29 30 30 30 30 30 31
46 45 44 44 43 43 42 41 39 39 39 39 39 38 38 38 37 36 35 34 34 34 34 34 34 34 34 33 33 32 32 32 31 31 31 31 31 31 31 30 29 29 28 28 31 32 32 32 30 29 28 28 28 27 27 27 27 27 27 28 28 29 30 30 30 30 31 30 31
46 45 44 44 43 43 42 41 39 39 38 38 38 38 38 37 37 36 35 34 34 34 34 34 34 34 34 33 32 32 32 32 31 31 31 31 31 31 30 30 30 28 28 30 33 35 35 35 34 32 30 28 28 28 27 27 27 27 28 28 29 29 29 30 30 31 31 31 31
46 45 44 43 43 42 42 41 40 39 38 38 38 37 37 37 36 35 34 34 33 33 33 33 33 34 34 33 32 31 31 31 31 31 31 31 31 30 30 30 30 29 29 31 34 36 37 37 37 35 32 29 28 28 28 28 27 27 28 28 29 29 30 30 31 31 32 32 32
46 45 44 44 43 42 42 42 41 40 39 38 38 37 37 37 36 35 34 33 33 33 33 33 33 33 33 32 31 31 31 31 31 31 32 31 31 31 30 30 30 30 30 33 35 37 38 39 38 37 35 31 29 28 28 28 28 28 28 28 29 29 30 30 31 32 33 33 33
46 45 45 44 43 43 42 42 41 41 40 39 39 38 37 37 36 35 34 34 33 33 33 33 33 33 32 32 31 31 31 31 31 31 32 31 31 31 31 31 31 31 33 35 36 37 39 39 39 39 38 35 31 29 29 29 28 29 30 30 30 30 31 31 32 33 33 34 35
45 45 45 44 44 43 43 42 41 41 40 40 39 38 37 37 36 35 35 34 33 33 33 33 33 32 32 32 32 31 31 31 31 31 31 31 31 31 31 32 31 32 33 36 37 38 39 40 40 40 39 38 34 31 30 30 30 31 32 32 32 32 33 33 34 34 34 35 36
45 45 45 44 44 44 43 43 42 41 40 39 38 37 36 36 35 35 35 34 34 34 34 34 33 32 32 32 32 32 31 31 31 31 31 31 31 31 31 32 32 32 33 36 37 39 39 40 41 41 41 40 36 33 32 31 32 32 33 34 34 34 35 35 35 35 36 36 36
44 45 45 44 44 44 44 44 43 42 40 40 39 37 37 36 36 35 35 35 35 34 34 33 32 32 32 32 32 32 32 31 31 31 31 31 31 31 32 32 32 32 34 36 38 39 40 41 41 41 41 41 38 35 33 33 33 33 34 35 35 35 36 36 36 37 37 37 37
44 44 44 44 44 44 44 43 42 41 40 39 39 38 37 36 36 35 35 35 34 34 33 33 32 31 31 31 32 32 32 31 31 31 32 32 32 32 32 32 32 33 34 37 38 39 40 41 41 42 42 42 39 37 35 35 34 34 35 35 35 36 37 37 37 38 38 38 38
42 44 44 44 44 44 43 43 42 41 40 39 39 38 37 36 35 34 34 35 35 34 34 33 32 32 32 32 32 32 32 32 32 32 32 32 32 32 32 32 32 33 35 37 38 39 40 41 42 42 42 42 39 38 37 36 36 35 35 35 36 36 37 37 37 38 38 38 38
42 43 44 44 44 44 44 43 42 41 39 39 38 37 36 35 35 34 34 35 35 35 34 33 33 33 33 33 33 32 32 32 32 32 32 32 32 32 32 32 33 34 36 37 38 39 40 41 42 42 42 41 39 38 38 37 37 36 36 36 36 36 36 36 37 37 38 39 39
44 44 44 44 44 44 44 43 42 40 39 38 38 37 36 36 36 35 35 35 35 34 33 33 33 33 33 33 33 33 33 32 32 32 32 32 32 32 32 33 33 35 36 37 38 39 40 41 42 42 42 40 39 38 38 37 37 37 36 36 37 37 37 36 36 37 38 38 38
45 45 45 45 45 44 44 43 41 40 39 39 38 37 37 36 36 36 36 35 34 34 33 33 33 33 33 32 32 32 33 33 33 33 33 33 33 32 32 33 34 34 36 37 38 39 40 41 42 42 41 39 38 38 38 37 37 37 37 36 37 37 38 37 37 37 37 37 37
45 45 45 45 44 44 43 42 41 40 40 39 39 38 38 37 36 36 36 35 34 34 33 33 33 33 32 32 32 32 33 33 33 33 34 34 34 33 33 33 34 34 35 37 38 39 40 41 42 42 41 39 38 38 37 37 37 37 36 36 37 37 38 38 38 38 37 36 37
46 45 44 44 44 43 43 43 42 41 40 40 39 39 39 38 37 37 37 36 35 35 34 34 33 33 33 33 33 33 33 33 34 34 34 34 34 34 34 34 34 34 35 36 38 39 40 41 41 42 41 39 38 38 37 37 36 36 36 36 37 37 38 38 38 38 38 37 37
47 46 45 44 43 43 43 42 42 41 41 40 40 39 39 38 38 38 37 37 36 36 35 34 34 34 34 34 33 33 33 33 34 34 34 35 35 35 35 34 34 34 35 36 37 38 39 40 41 42 41 39 39 38 37 37 36 36 36 36 36 37 37 38 38 38 38 37 37
48 47 46 45 44 43 42 42 42 42 41 40 40 39 39 39 39 38 38 37 37 36 36 35 35 35 35 35 34 34 33 34 34 34 35 35 35 35 35 34 34 34 35 36 37 38 39 40 41 42 42 39 38 38 37 37 36 35 35 36 36 36 37 37 37 38 38 38 38
MSLP
1013.95 1014.07 1014.19 1014.35 1014.47 1014.59 1014.67 1014.71 1014.79 1014.91 1015.03 1015.15 1015.23 1015.35 1015.47 1015.67 1015.79 1015.87 1016.03 1016.23 1016.35 1016.47 1016.67 1016.91 1017.07 1017.27 1017.51 1017.79 1018.03 1018.27 1018.51 1018.71 1018.91 1019.07 1019.15 1019.23 1019.35 1019.55 1019.79 1020.07 1020.35 1020.59 1020.79 1021.03 1021.27 1021.55 1021.79 1022.03 1022.27 1022.47 1022.63 1022.75 1022.79 1022.91 1022.99 1023.11 1023.23 1023.35 1023.43 1023.51 1023.63 1023.71 1023.79 1023.83 1023.91 1023.91 1023.99 1024.03 1024.07
1013.63 1013.75 1013.91 1014.07 1014.23 1014.35 1014.47 1014.59 1014.67 1014.79 1014.91 1014.99 1015.07 1015.19 1015.35 1015.47 1015.51 1015.63 1015.71 1015.83 1015.99 1016.19 1016.35 1016.51 1016.71 1016.91 1017.19 1017.43 1017.67 1017.91 1018.19 1018.39 1018.63 1018.79 1018.95 1019.07 1019.19 1019.35 1019.63 1019.79 1020.07 1020.27 1020.47 1020.71 1020.99 1021.27 1021.51 1021.75 1021.95 1022.15 1022.35 1022.47 1022.63 1022.67 1022.75 1022.91 1023.07 1023.19 1023.23 1023.35 1023.43 1023.51 1023.59 1023.63 1023.63 1023.71 1023.79 1023.83 1023.83
1013.35 1013.47 1013.63 1013.79 1013.91 1014.07 1014.19 1014.31 1014.43 1014.59 1014.71 1014.79 1014.95 1015.07 1015.19 1015.27 1015.35 1015.43 1015.47 1015.59 1015.71 1015.87 1016.07 1016.19 1016.39 1016.59 1016.79 1017.07 1017.31 1017.59 1017.79 1018.07 1018.31 1018.55 1018.75 1018.83 1018.99 1019.19 1019.35 1019.55 1019.79 1019.99 1020.19 1020.47 1020.71 1020.95 1021.19 1021.43 1021.63 1021.87 1022.07 1022.23 1022.35 1022.43 1022.51 1022.67 1022.87 1022.99 1023.07 1023.11 1023.19 1023.31 1023.35 1023.39 1023.47 1023.47 1023.55 1023.59 1023.59
1013.03 1013.19 1013.35 1013.43 1013.51 1013.63 1013.79 1013.95 1014.15 1014.31 1014.47 1014.63 1014.75 1014.91 1014.99 1015.07 1015.19 1015.27 1015.35 1015.43 1015.59 1015.71 1015.79 1015.91 1016.07 1016.31 1016.47 1016.71 1016.91 1017.19 1017.43 1017.67 1017.95 1018.23 1018.43 1018.59 1018.75 1018.95 1019.11 1019.27 1019.47 1019.71 1019.95 1020.19 1020.47 1020.67 1020.91 1021.15 1021.39 1021.59 1021.75 1021.91 1022.07 1022.15 1022.23 1022.35 1022.55 1022.75 1022.87 1022.91 1023.03 1023.07 1023.15 1023.19 1023.23 1023.27 1023.27 1023.27 1023.35
1012.63 1012.79 1012.91 1013.07 1013.19 1013.35 1013.51 1013.67 1013.87 1014.03 1014.19 1014.43 1014.59 1014.67 1014.75 1014.91 1015.03 1015.11 1015.19 1015.31 1015.35 1015.43 1015.51 1015.71 1015.91 1016.07 1016.27 1016.47 1016.63 1016.87 1017.11 1017.35 1017.63 1017.91 1018.11 1018.31 1018.47 1018.63 1018.83 1019.03 1019.15 1019.39 1019.67 1019.95 1020.19 1020.43 1020.63 1020.91 1021.15 1021.35 1021.47 1021.63 1021.79 1021.87 1021.95 1022.11 1022.35 1022.47 1022.63 1022.71 1022.79 1022.87 1022.91 1022.95 1022.99 1023.03 1023.03 1023.03 1023.07
1012.23 1012.39 1012.55 1012.75 1012.91 1013.11 1013.27 1013.47 1013.63 1013.79 1013.99 1014.19 1014.27 1014.35 1014.47 1014.63 1014.79 1014.91 1014.99 1015.07 1015.07 1015.19 1015.39 1015.59 1015.75 1015.91 1016.07 1016.23 1016.39 1016.63 1016.83 1017.07 1017.35 1017.59 1017.79 1018.03 1018.19 1018.35 1018.51 1018.75 1018.91 1019.11 1019.35 1019.63 1019.91 1020.19 1020.43 1020.67 1020.87 1021.07 1021.19 1021.39 1021.47 1021.59 1021.67 1021.91 1022.07 1022.23 1022.39 1022.47 1022.51 1022.59 1022.63 1022.71 1022.71 1022.75 1022.75 1022.75 1022.71
1011.87 1012.07 1012.27 1012.47 1012.63 1012.83 1013.03 1013.15 1013.35 1013.59 1013.79 1013.91 1013.95 1014.03 1014.15 1014.35 1014.51 1014.63 1014.67 1014.75 1014.91 1015.07 1015.23 1015.39 1015.55 1015.71 1015.87 1016.03 1016.19 1016.35 1016.55 1016.75 1017.03 1017.23 1017.47 1017.67 1017.83 1018.03 1018.19 1018.39 1018.63 1018.87 1019.11 1019.35 1019.63 1019.91 1020.19 1020.39 1020.59 1020.75 1020.91 1021.07 1021.19 1021.35 1021.47 1021.63 1021.79 1021.95 1022.07 1022.19 1022.23 1022.35 1022.43 1022.43 1022.47 1022.47 1022.47 1022.39 1022.43
1011.63 1011.79 1011.99 1012.15 1012.35 1012.55 1012.75 1012.91 1013.15 1013.31 1013.47 1013.59 1013.63 1013.75 1013.91 1014.07 1014.23 1014.35 1014.47 1014.63 1014.75 1014.87 1015.03 1015.19 1015.35 1015.47 1015.63 1015.79 1015.95 1016.15 1016.35 1016.51 1016.75 1016.91 1017.11 1017.35 1017.47 1017.67 1017.91 1018.11 1018.35 1018.63 1018.83 1019.07 1019.35 1019.63 1019.87 1020.11 1020.31 1020.47 1020.63 1020.79 1020.91 1021.03 1021.19 1021.39 1021.55 1021.71 1021.79 1021.91 1021.95 1022.03 1022.11 1022.19 1022.23 1022.19 1022.19 1022.19 1022.19
1011.47 1011.59 1011.79 1011.95 1012.15 1012.35 1012.51 1012.75 1012.91 1013.03 1013.11 1013.19 1013.35 1013.47 1013.67 1013.91 1014.07 1014.19 1014.31 1014.43 1014.47 1014.63 1014.87 1015.03 1015.15 1015.27 1015.47 1015.63 1015.79 1015.91 1016.11 1016.31 1016.47 1016.63 1016.75 1016.95 1017.11 1017.35 1017.55 1017.79 1018.07 1018.31 1018.55 1018.79 1019.07 1019.31 1019.55 1019.79 1019.95 1020.11 1020.31 1020.43 1020.55 1020.67 1020.91 1021.07 1021.35 1021.47 1021.55 1021.63 1021.71 1021.75 1021.79 1021.87 1021.91 1021.91 1021.91 1021.91 1021.91
1011.31 1011.39 1011.59 1011.79 1011.95 1012.15 1012.35 1012.59 1012.71 1012.83 1012.91 1012.95 1013.07 1013.27 1013.47 1013.63 1013.79 1013.95 1014.07 1014.19 1014.31 1014.47 1014.67 1014.79 1014.99 1015.15 1015.31 1015.43 1015.59 1015.75 1015.91 1016.07 1016.23 1016.35 1016.47 1016.67 1016.83 1017.03 1017.27 1017.51 1017.75 1017.95 1018.19 1018.47 1018.75 1019.03 1019.23 1019.47 1019.63 1019.79 1019.95 1020.11 1020.23 1020.39 1020.63 1020.83 1021.07 1021.19 1021.31 1021.39 1021.43 1021.43 1021.47 1021.51 1021.55 1021.59 1021.63 1021.63 1021.67
1011.15 1011.27 1011.43 1011.59 1011.75 1011.99 1012.23 1012.39 1012.51 1012.63 1012.75 1012.75 1012.91 1013.07 1013.19 1013.35 1013.51 1013.67 1013.87 1014.03 1014.19 1014.27 1014.39 1014.59 1014.79 1014.95 1015.11 1015.23 1015.39 1015.55 1015.71 1015.87 1016.03 1016.15 1016.23 1016.35 1016.55 1016.75 1016.99 1017.23 1017.43 1017.63 1017.87 1018.07 1018.39 1018.67 1018.91 1019.11 1019.31 1019.47 1019.63 1019.79 1019.99 1020.19 1020.35 1020.55 1020.75 1020.91 1021.03 1021.07 1021.11 1021.15 1021.19 1021.19 1021.19 1021.27 1021.35 1021.35 1021.35
1010.99 1011.11 1011.23 1011.39 1011.59 1011.79 1012.03 1012.19 1012.27 1012.39 1012.51 1012.59 1012.67 1012.79 1012.95 1013.07 1013.23 1013.43 1013.63 1013.83 1013.91 1014.03 1014.19 1014.39 1014.63 1014.75 1014.87 1015.03 1015.19 1015.35 1015.51 1015.63 1015.79 1015.91 1016.03 1016.19 1016.35 1016.51 1016.75 1016.99 1017.19 1017.39 1017.59 1017.79 1018.07 1018.31 1018.55 1018.75 1018.95 1019.15 1019.35 1019.47 1019.71 1019.91 1020.07 1020.27 1020.43 1020.59 1020.71 1020.75 1020.79 1020.87 1020.91 1020.87 1020.91 1020.99 1021.07 1021.07 1021.07
1010.79 1010.91 1011.07 1011.19 1011.35 1011.55 1011.75 1011.91 1012.03 1012.15 1012.27 1012.35 1012.47 1012.63 1012.75 1012.87 1013.03 1013.23 1013.43 1013.55 1013.63 1013.79 1013.99 1014.19 1014.35 1014.51 1014.67 1014.75 1014.95 1015.15 1015.31 1015.43 1015.55 1015.63 1015.79 1015.95 1016.15 1016.35 1016.63 1016.83 1017.03 1017.19 1017.35 1017.51 1017.75 1017.95 1018.19 1018.39 1018.63 1018.79 1018.99 1019.19 1019.35 1019.51 1019.71 1019.91 1020.11 1020.23 1020.35 1020.39 1020.47 1020.47 1020.51 1020.59 1020.63 1020.75 1020.79 1020.79 1020.79
1010.63 1010.71 1010.83 1010.95 1011.07 1011.23 1011.39 1011.55 1011.67 1011.83 1011.95 1012.07 1012.19 1012.35 1012.55 1012.71 1012.87 1013.03 1013.19 1013.31 1013.39 1013.55 1013.75 1013.95 1014.15 1014.27 1014.39 1014.55 1014.75 1014.91 1015.03 1015.19 1015.35 1015.47 1015.59 1015.79 1015.95 1016.19 1016.39 1016.63 1016.79 1016.99 1017.11 1017.27 1017.47 1017.63 1017.83 1018.07 1018.27 1018.47 1018.63 1018.83 1018.95 1019.11 1019.35 1019.55 1019.71 1019.79 1019.91 1019.99 1020.07 1020.11 1020.15 1020.23 1020.35 1020.47 1020.55 1020.55 1020.47
1010.43 1010.47 1010.59 1010.71 1010.83 1010.91 1011.03 1011.19 1011.27 1011.39 1011.55 1011.71 1011.87 1012.07 1012.27 1012.47 1012.63 1012.75 1012.91 1013.03 1013.15 1013.35 1013.51 1013.71 1013.87 1013.99 1014.19 1014.35 1014.51 1014.63 1014.79 1014.91 1015.07 1015.23 1015.39 1015.55 1015.75 1015.91 1016.15 1016.39 1016.59 1016.75 1016.87 1017.07 1017.19 1017.35 1017.51 1017.67 1017.91 1018.11 1018.31 1018.47 1018.63 1018.83 1019.07 1019.19 1019.31 1019.39 1019.47 1019.55 1019.63 1019.71 1019.79 1019.91 1020.07 1020.19 1020.23 1020.23 1020.19
1010.19 1010.23 1010.31 1010.39 1010.47 1010.55 1010.63 1010.71 1010.83 1010.91 1011.07 1011.23 1011.43 1011.71 1011.91 1012.11 1012.31 1012.47 1012.63 1012.79 1012.91 1013.11 1013.27 1013.43 1013.59 1013.79 1013.99 1014.15 1014.31 1014.43 1014.59 1014.71 1014.83 1014.99 1015.15 1015.31 1015.47 1015.67 1015.91 1016.11 1016.35 1016.51 1016.63 1016.75 1016.91 1017.07 1017.23 1017.39 1017.63 1017.79 1017.95 1018.15 1018.31 1018.51 1018.71 1018.83 1018.91 1019.03 1019.11 1019.19 1019.27 1019.35 1019.47 1019.59 1019.71 1019.83 1019.91 1019.91 1019.91
1009.91 1009.95 1010.03 1010.07 1010.11 1010.11 1010.15 1010.19 1010.27 1010.35 1010.47 1010.63 1010.91 1011.19 1011.47 1011.67 1011.91 1012.15 1012.35 1012.51 1012.71 1012.87 1013.03 1013.15 1013.35 1013.55 1013.75 1013.87 1014.07 1014.19 1014.35 1014.47 1014.59 1014.71 1014.87 1015.03 1015.19 1015.35 1015.59 1015.83 1016.03 1016.19 1016.35 1016.47 1016.63 1016.75 1016.95 1017.19 1017.35 1017.47 1017.67 1017.87 1018.07 1018.19 1018.35 1018.47 1018.55 1018.63 1018.75 1018.83 1018.95 1019.07 1019.11 1019.23 1019.35 1019.47 1019.59 1019.59 1019.59
1009.59 1009.63 1009.67 1009.71 1009.71 1009.71 1009.71 1009.75 1009.79 1009.79 1009.91 1010.07 1010.35 1010.63 1010.91 1011.19 1011.47 1011.71 1011.91 1012.15 1012.35 1012.55 1012.71 1012.87 1013.07 1013.27 1013.43 1013.55 1013.71 1013.87 1014.03 1014.19 1014.27 1014.39 1014.55 1014.75 1014.91 1015.07 1015.27 1015.47 1015.67 1015.87 1016.03 1016.11 1016.23 1016.39 1016.59 1016.79 1017.03 1017.23 1017.43 1017.63 1017.75 1017.91 1017.99 1018.07 1018.19 1018.27 1018.35 1018.47 1018.63 1018.71 1018.79 1018.91 1019.03 1019.15 1019.23 1019.23 1019.23
1009.19 1009.23 1009.31 1009.31 1009.31 1009.31 1009.35 1009.39 1009.47 1009.47 1009.51 1009.67 1009.87 1010.15 1010.39 1010.63 1010.91 1011.19 1011.47 1011.71 1011.91 1012.11 1012.35 1012.55 1012.75 1012.91 1013.07 1013.23 1013.39 1013.55 1013.71 1013.83 1013.95 1014.11 1014.27 1014.47 1014.63 1014.79 1014.95 1015.15 1015.35 1015.59 1015.71 1015.79 1015.91 1016.07 1016.23 1016.47 1016.71 1016.91 1017.11 1017.31 1017.47 1017.59 1017.67 1017.79 1017.83 1017.91 1017.99 1018.11 1018.23 1018.35 1018.47 1018.63 1018.75 1018.79 1018.87 1018.91 1018.91
1008.75 1008.75 1008.79 1008.79 1008.91 1008.99 1009.07 1009.19 1009.27 1009.31 1009.35 1009.47 1009.55 1009.75 1009.99 1010.23 1010.51 1010.79 1011.07 1011.27 1011.47 1011.75 1011.95 1012.15 1012.35 1012.51 1012.71 1012.91 1013.07 1013.23 1013.35 1013.51 1013.67 1013.83 1013.99 1014.19 1014.35 1014.47 1014.63 1014.79 1015.07 1015.27 1015.43 1015.55 1015.63 1015.79 1015.99 1016.15 1016.35 1016.55 1016.75 1016.91 1017.07 1017.19 1017.35 1017.43 1017.47 1017.55 1017.67 1017.79 1017.91 1018.03 1018.11 1018.27 1018.39 1018.47 1018.55 1018.59 1018.59
1008.35 1008.35 1008.35 1008.39 1008.51 1008.67 1008.79 1008.91 1009.07 1009.23 1009.31 1009.35 1009.35 1009.47 1009.63 1009.87 1010.15 1010.39 1010.63 1010.87 1011.15 1011.39 1011.59 1011.79 1011.91 1012.07 1012.27 1012.47 1012.67 1012.83 1012.99 1013.15 1013.35 1013.51 1013.67 1013.83 1014.03 1014.15 1014.31 1014.51 1014.75 1014.95 1015.11 1015.27 1015.35 1015.47 1015.63 1015.79 1015.95 1016.15 1016.35 1016.51 1016.67 1016.83 1016.95 1017.07 1017.15 1017.23 1017.35 1017.43 1017.55 1017.67 1017.79 1017.91 1018.07 1018.15 1018.19 1018.23 1018.27
1008.19 1008.15 1008.15 1008.19 1008.31 1008.43 1008.59 1008.75 1008.91 1009.07 1009.15 1009.19 1009.23 1009.27 1009.39 1009.55 1009.79 1010.03 1010.31 1010.63 1010.91 1011.07 1011.23 1011.39 1011.55 1011.71 1011.87 1012.03 1012.19 1012.43 1012.63 1012.83 1013.03 1013.19 1013.35 1013.51 1013.63 1013.83 1013.99 1014.19 1014.43 1014.63 1014.75 1014.91 1015.03 1015.11 1015.27 1015.39 1015.51 1015.71 1015.91 1016.11 1016.31 1016.43 1016.55 1016.67 1016.75 1016.87 1016.91 1017.03 1017.15 1017.27 1017.43 1017.55 1017.67 1017.79 1017.83 1017.83 1017.87
1008.35 1008.31 1008.31 1008.31 1008.31 1008.35 1008.47 1008.59 1008.75 1008.83 1008.91 1009.03 1009.03 1009.07 1009.15 1009.27 1009.43 1009.71 1009.99 1010.35 1010.55 1010.75 1010.91 1011.07 1011.23 1011.39 1011.59 1011.71 1011.91 1012.11 1012.31 1012.47 1012.67 1012.83 1012.99 1013.15 1013.31 1013.47 1013.67 1013.87 1014.07 1014.19 1014.35 1014.47 1014.59 1014.75 1014.91 1015.07 1015.15 1015.31 1015.51 1015.71 1015.91 1016.03 1016.15 1016.27 1016.39 1016.47 1016.55 1016.67 1016.75 1016.91 1017.03 1017.15 1017.23 1017.35 1017.43 1017.43 1017.43
1008.43 1008.47 1008.47 1008.51 1008.47 1008.51 1008.55 1008.63 1008.67 1008.75 1008.75 1008.75 1008.83 1008.91 1008.95 1009.03 1009.19 1009.43 1009.67 1009.91 1010.11 1010.35 1010.51 1010.71 1010.87 1011.07 1011.27 1011.47 1011.67 1011.83 1012.03 1012.15 1012.27 1012.43 1012.59 1012.75 1012.87 1013.07 1013.23 1013.39 1013.55 1013.67 1013.79 1013.91 1014.07 1014.23 1014.39 1014.59 1014.75 1014.95 1015.11 1015.31 1015.47 1015.63 1015.79 1015.91 1016.03 1016.07 1016.19 1016.27 1016.39 1016.51 1016.63 1016.75 1016.83 1016.91 1016.95 1016.99 1016.99
1008.35 1008.43 1008.47 1008.51 1008.55 1008.63 1008.67 1008.71 1008.75 1008.79 1008.79 1008.83 1008.87 1008.87 1008.87 1008.91 1009.07 1009.19 1009.35 1009.51 1009.71 1009.91 1010.11 1010.31 1010.47 1010.75 1010.95 1011.15 1011.31 1011.47 1011.59 1011.71 1011.83 1011.95 1012.11 1012.27 1012.39 1012.55 1012.71 1012.91 1013.03 1013.15 1013.31 1013.47 1013.51 1013.63 1013.79 1013.91 1014.19 1014.43 1014.67 1014.91 1015.11 1015.27 1015.43 1015.59 1015.63 1015.75 1015.83 1015.91 1016.03 1016.11 1016.23 1016.31 1016.35 1016.47 1016.51 1016.51 1016.59
1008.19 1008.27 1008.35 1008.35 1008.47 1008.51 1008.59 1008.67 1008.75 1008.83 1008.91 1008.95 1008.99 1008.95 1008.91 1008.91 1008.95 1009.03 1009.11 1009.27 1009.39 1009.59 1009.79 1009.99 1010.19 1010.39 1010.59 1010.75 1010.91 1011.07 1011.15 1011.23 1011.35 1011.47 1011.59 1011.79 1011.91 1012.07 1012.23 1012.39 1012.51 1012.67 1012.87 1013.03 1013.03 1013.11 1013.23 1013.39 1013.59 1013.87 1014.19 1014.47 1014.67 1014.91 1015.07 1015.19 1015.27 1015.39 1015.47 1015.59 1015.67 1015.79 1015.83 1015.87 1015.91 1015.95 1016.03 1016.07 1016.11
1008.15 1008.11 1008.11 1008.19 1008.27 1008.31 1008.35 1008.47 1008.63 1008.75 1008.83 1008.91 1008.99 1008.95 1008.91 1008.91 1008.91 1008.95 1009.03 1009.11 1009.23 1009.43 1009.63 1009.87 1010.03 1010.19 1010.35 1010.47 1010.59 1010.67 1010.75 1010.83 1010.95 1011.07 1011.19 1011.35 1011.51 1011.67 1011.79 1011.95 1012.07 1012.27 1012.43 1012.51 1012.59 1012.63 1012.75 1012.91 1013.07 1013.35 1013.67 1014.07 1014.27 1014.47 1014.59 1014.71 1014.91 1015.07 1015.19 1015.31 1015.35 1015.39 1015.43 1015.47 1015.47 1015.47 1015.51 1015.59 1015.63
1007.99 1008.03 1008.03 1008.07 1008.07 1008.07 1008.07 1008.19 1008.31 1008.39 1008.47 1008.59 1008.71 1008.75 1008.75 1008.79 1008.83 1008.87 1008.91 1009.03 1009.19 1009.39 1009.59 1009.75 1009.91 1010.07 1010.19 1010.31 1010.35 1010.43 1010.51 1010.63 1010.75 1010.91 1011.03 1011.15 1011.23 1011.35 1011.43 1011.55 1011.67 1011.83 1011.99 1012.07 1012.19 1012.23 1012.31 1012.35 1012.51 1012.75 1013.11 1013.55 1013.87 1014.07 1014.19 1014.31 1014.47 1014.67 1014.83 1014.91 1014.99 1015.03 1015.07 1015.07 1015.07 1015.11 1015.11 1015.11 1015.15
1007.87 1007.91 1007.91 1007.91 1007.91 1007.87 1007.91 1007.99 1008.03 1008.07 1008.15 1008.27 1008.35 1008.47 1008.51 1008.59 1008.59 1008.63 1008.75 1008.91 1009.07 1009.19 1009.31 1009.47 1009.67 1009.83 1009.91 1009.99 1010.07 1010.19 1010.43 1010.59 1010.71 1010.79 1010.91 1010.99 1011.03 1011.07 1011.19 1011.27 1011.35 1011.47 1011.63 1011.75 1011.79 1011.83 1011.87 1011.91 1012.03 1012.19 1012.51 1012.95 1013.43 1013.71 1013.87 1013.99 1014.11 1014.23 1014.35 1014.47 1014.55 1014.59 1014.63 1014.63 1014.67 1014.67 1014.67 1014.63 1014.67
1007.83 1007.79 1007.79 1007.71 1007.71 1007.71 1007.75 1007.75 1007.79 1007.87 1007.91 1008.03 1008.11 1008.19 1008.27 1008.31 1008.31 1008.35 1008.47 1008.59 1008.67 1008.79 1008.91 1009.07 1009.27 1009.39 1009.47 1009.55 1009.71 1009.91 1010.11 1010.27 1010.43 1010.55 1010.63 1010.71 1010.79 1010.87 1010.95 1011.03 1011.11 1011.19 1011.31 1011.39 1011.43 1011.43 1011.43 1011.47 1011.55 1011.67 1011.91 1012.35 1012.83 1013.19 1013.43 1013.55 1013.63 1013.75 1013.79 1013.87 1013.91 1014.03 1014.07 1014.11 1014.15 1014.19 1014.19 1014.15 1014.15
1007.75 1007.67 1007.63 1007.55 1007.51 1007.47 1007.47 1007.51 1007.59 1007.67 1007.79 1007.83 1007.91 1007.99 1007.99 1008.03 1008.03 1008.07 1008.11 1008.19 1008.35 1008.43 1008.59 1008.75 1008.87 1008.91 1008.99 1009.15 1009.35 1009.51 1009.63 1009.87 1010.07 1010.19 1010.31 1010.35 1010.47 1010.55 1010.67 1010.79 1010.87 1010.95 1011.03 1011.07 1011.07 1011.07 1011.07 1011.07 1011.11 1011.23 1011.43 1011.71 1012.19 1012.59 1012.87 1013.03 1013.15 1013.23 1013.27 1013.27 1013.35 1013.39 1013.47 1013.55 1013.59 1013.63 1013.63 1013.67 1013.67
1007.63 1007.55 1007.47 1007.39 1007.31 1007.27 1007.27 1007.31 1007.35 1007.47 1007.51 1007.59 1007.63 1007.71 1007.71 1007.67 1007.67 1007.75 1007.83 1007.91 1008.07 1008.19 1008.35 1008.39 1008.47 1008.47 1008.63 1008.75 1008.95 1009.07 1009.19 1009.43 1009.63 1009.79 1009.91 1010.03 1010.11 1010.23 1010.35 1010.47 1010.55 1010.63 1010.71 1010.67 1010.67 1010.67 1010.63 1010.67 1010.75 1010.87 1011.03 1011.23 1011.63 1012.03 1012.31 1012.47 1012.63 1012.75 1012.75 1012.79 1012.87 1012.91 1012.99 1013.07 1013.07 1013.07 1013.11 1013.19 1013.23
1007.39 1007.35 1007.31 1007.19 1007.07 1007.07 1007.07 1007.11 1007.15 1007.23 1007.31 1007.35 1007.35 1007.39 1007.39 1007.43 1007.47 1007.55 1007.67 1007.75 1007.83 1007.95 1007.99 1008.03 1008.07 1008.15 1008.27 1008.39 1008.55 1008.71 1008.83 1009.03 1009.19 1009.35 1009.47 1009.67 1009.79 1009.91 1010.03 1010.11 1010.19 1010.27 1010.35 1010.35 1010.35 1010.31 1010.31 1010.35 1010.39 1010.51 1010.71 1010.87 1011.15 1011.47 1011.79 1011.99 1012.19 1012.31 1012.35 1012.43 1012.47 1012.51 1012.55 1012.63 1012.63 1012.63 1012.63 1012.71 1012.75
1007.19 1007.11 1007.03 1006.95 1006.91 1006.87 1006.87 1006.91 1006.95 1007.07 1007.11 1007.11 1007.11 1007.15 1007.19 1007.27 1007.35 1007.43 1007.47 1007.59 1007.63 1007.71 1007.75 1007.79 1007.83 1007.91 1007.99 1008.07 1008.19 1008.35 1008.47 1008.59 1008.75 1008.95 1009.15 1009.31 1009.43 1009.55 1009.63 1009.71 1009.75 1009.87 1009.95 1010.03 1010.03 1009.99 1009.95 1010.03 1010.07 1010.19 1010.35 1010.55 1010.79 1011.07 1011.35 1011.55 1011.71 1011.83 1011.91 1011.99 1012.07 1012.11 1012.19 1012.19 1012.23 1012.23 1012.27 1012.35 1012.43
1006.87 1006.79 1006.71 1006.63 1006.63 1006.63 1006.63 1006.67 1006.75 1006.83 1006.87 1006.91 1006.91 1006.91 1007.07 1007.15 1007.23 1007.27 1007.35 1007.43 1007.47 1007.55 1007.59 1007.63 1007.71 1007.79 1007.87 1007.91 1007.99 1008.07 1008.15 1008.23 1008.43 1008.59 1008.75 1008.95 1009.11 1009.19 1009.23 1009.23 1009.35 1009.47 1009.59 1009.67 1009.67 1009.67 1009.63 1009.67 1009.75 1009.87 1010.07 1010.31 1010.51 1010.75 1010.91 1011.11 1011.27 1011.35 1011.47 1011.59 1011.67 1011.75 1011.79 1011.87 1011.91 1011.95 1011.99 1012.03 1012.07
1006.47 1006.39 1006.35 1006.27 1006.27 1006.35 1006.35 1006.43 1006.51 1006.55 1006.59 1006.59 1006.63 1006.71 1006.83 1006.91 1007.03 1007.07 1007.19 1007.31 1007.35 1007.43 1007.47 1007.47 1007.63 1007.67 1007.71 1007.75 1007.79 1007.83 1007.91 1007.95 1008.07 1008.27 1008.43 1008.63 1008.75 1008.83 1008.83 1008.83 1008.95 1009.11 1009.23 1009.31 1009.35 1009.35 1009.35 1009.35 1009.43 1009.55 1009.79 1010.03 1010.23 1010.39 1010.55 1010.71 1010.83 1010.91 1011.07 1011.19 1011.23 1011.31 1011.39 1011.51 1011.63 1011.67 1011.71 1011.75 1011.79
1006.19 1006.07 1005.95 1005.91 1005.91 1005.91 1006.03 1006.11 1006.19 1006.23 1006.23 1006.23 1006.31 1006.39 1006.51 1006.63 1006.75 1006.83 1006.99 1007.11 1007.19 1007.19 1007.19 1007.31 1007.39 1007.39 1007.39 1007.47 1007.51 1007.55 1007.63 1007.75 1007.87 1007.95 1008.07 1008.19 1008.31 1008.39 1008.43 1008.47 1008.63 1008.75 1008.87 1008.95 1008.99 1009.03 1009.03 1009.07 1009.11 1009.23 1009.47 1009.71 1009.91 1010.07 1010.23 1010.35 1010.47 1010.63 1010.71 1010.79 1010.87 1010.91 1011.03 1011.15 1011.27 1011.35 1011.43 1011.47 1011.51
1005.91 1005.79 1005.67 1005.63 1005.55 1005.55 1005.63 1005.75 1005.79 1005.83 1005.79 1005.83 1005.91 1006.03 1006.15 1006.31 1006.43 1006.55 1006.67 1006.83 1006.91 1006.87 1006.91 1006.99 1007.03 1007.07 1007.07 1007.19 1007.27 1007.35 1007.47 1007.55 1007.63 1007.63 1007.71 1007.79 1007.91 1007.99 1008.07 1008.19 1008.23 1008.39 1008.51 1008.63 1008.67 1008.67 1008.71 1008.75 1008.79 1008.91 1009.11 1009.35 1009.51 1009.71 1009.87 1009.99 1010.15 1010.23 1010.35 1010.43 1010.51 1010.63 1010.71 1010.79 1010.91 1010.99 1011.07 1011.19 1011.27
1005.55 1005.51 1005.47 1005.35 1005.31 1005.27 1005.27 1005.35 1005.35 1005.35 1005.39 1005.47 1005.55 1005.63 1005.79 1005.91 1006.07 1006.19 1006.31 1006.47 1006.51 1006.55 1006.55 1006.63 1006.67 1006.75 1006.87 1007.03 1007.07 1007.15 1007.19 1007.27 1007.35 1007.39 1007.39 1007.43 1007.51 1007.63 1007.79 1007.87 1007.91 1008.07 1008.23 1008.35 1008.35 1008.35 1008.39 1008.43 1008.51 1008.63 1008.75 1008.99 1009.19 1009.35 1009.51 1009.63 1009.79 1009.91 1010.03 1010.11 1010.23 1010.31 1010.39 1010.51 1010.59 1010.63 1010.75 1010.83 1010.91
1005.27 1005.19 1005.19 1005.07 1005.07 1004.99 1004.95 1004.91 1004.91 1004.95 1005.03 1005.15 1005.19 1005.31 1005.39 1005.55 1005.63 1005.79 1005.91 1006.07 1006.15 1006.19 1006.23 1006.31 1006.35 1006.47 1006.63 1006.79 1006.87 1006.83 1006.87 1006.95 1007.07 1007.11 1007.15 1007.15 1007.23 1007.35 1007.47 1007.59 1007.63 1007.75 1007.87 1007.99 1008.07 1008.07 1008.07 1008.15 1008.19 1008.27 1008.47 1008.71 1008.87 1009.07 1009.19 1009.35 1009.47 1009.59 1009.71 1009.79 1009.91 1010.03 1010.07 1010.19 1010.23 1010.35 1010.39 1010.43 1010.55
1005.07 1004.99 1004.91 1004.83 1004.75 1004.75 1004.67 1004.63 1004.55 1004.63 1004.71 1004.79 1004.87 1004.95 1005.07 1005.19 1005.35 1005.47 1005.63 1005.71 1005.79 1005.87 1005.91 1006.03 1006.07 1006.19 1006.35 1006.47 1006.51 1006.55 1006.55 1006.63 1006.67 1006.75 1006.87 1006.91 1006.99 1007.07 1007.19 1007.27 1007.35 1007.43 1007.55 1007.67 1007.79 1007.79 1007.83 1007.87 1007.91 1007.95 1008.11 1008.35 1008.55 1008.75 1008.91 1009.07 1009.19 1009.27 1009.35 1009.47 1009.59 1009.71 1009.79 1009.87 1009.91 1009.99 1010.07 1010.11 1010.19
Wind_Speed
16 14 12 11 10 10 9 9 9 9 8 8 8 9 9 9 9 9 9 9 9 9 9 9 9 10 11 14 16 17 17 18 18 19 19 19 18 17 17 17 16 16 16 15 15 14 13 13 11 9 7 7 8 8 8 8 9 9 9 9 9 9 10 11 11 12 13 13 11
17 16 15 13 12 10 9 9 9 9 8 8 8 8 8 8 9 9 9 10 9 9 9 8 10 11 13 15 16 17 17 18 19 19 19 19 18 18 17 16 16 16 16 16 16 13 12 13 11 9 7 7 8 8 8 8 8 9 10 11 9 8 9 10 11 12 12 13 11
16 16 15 14 13 11 10 9 9 10 10 9 8 8 8 8 8 8 9 9 9 9 9 8 10 12 14 16 16 16 16 17 18 18 18 18 18 18 17 16 17 17 17 16 15 13 12 13 11 9 8 7 8 8 8 9 9 9 10 11 9 8 7 8 9 10 10 9 11
16 16 15 15 16 15 13 10 11 11 11 10 9 9 8 8 8 8 8 9 10 10 9 9 9 11 13 14 15 16 16 17 18 18 17 17 18 18 18 17 17 17 17 16 16 15 14 13 10 9 8 9 9 9 8 8 9 9 8 9 8 8 8 7 8 8 8 8 9
16 16 15 15 17 16 15 12 13 12 11 9 9 8 8 8 8 8 8 9 9 10 10 11 9 10 11 13 16 16 17 17 18 17 17 17 18 18 18 18 18 17 16 16 16 16 15 14 10 8 8 9 9 8 8 9 9 9 8 7 7 7 7 7 7 7 7 7 8
15 15 15 14 16 15 14 13 14 13 11 9 10 10 9 8 8 9 10 10 10 10 11 12 11 11 11 13 15 16 16 16 16 16 16 17 17 18 19 19 18 17 16 16 16 16 15 14 10 8 8 8 8 9 9 10 9 9 8 7 7 7 7 8 8 7 8 8 9
15 15 15 15 15 15 14 13 13 13 12 11 12 13 13 11 11 12 13 11 10 10 11 11 11 11 12 13 14 14 15 15 15 16 17 17 17 18 18 18 18 17 17 16 16 16 15 14 10 8 8 8 7 9 10 10 10 9 9 9 8 7 8 9 8 8 9 11 12
14 14 14 14 15 15 15 15 13 13 12 11 13 14 15 14 14 14 14 13 11 10 10 9 11 12 13 13 13 14 14 15 15 16 17 16 18 18 18 18 18 17 17 17 16 16 15 13 10 9 8 8 7 8 10 11 11 11 10 10 9 8 8 8 8 8 9 12 13
12 13 13 13 14 14 14 14 14 14 14 13 14 15 15 15 15 15 14 13 12 11 10 9 12 13 14 14 14 14 14 14 15 16 16 17 18 18 17 17 17 17 17 16 16 17 16 12 10 9 9 8 8 9 10 12 12 12 12 11 10 9 9 9 10 10 11 12 13
12 12 12 12 13 13 14 14 14 15 16 16 16 15 15 15 15 15 13 12 11 11 10 10 12 13 14 14 14 14 14 14 14 15 16 16 17 17 17 15 16 17 16 16 16 16 16 12 11 10 10 9 10 10 11 12 13 13 12 10 10 11 12 11 12 12 12 12 13
13 13 12 11 12 12 13 13 14 14 15 16 16 15 15 15 15 14 13 11 11 12 12 11 12 13 14 13 13 14 13 13 13 14 15 16 17 16 16 15 16 17 17 16 15 15 14 12 12 12 12 11 11 11 12 13 13 14 13 11 12 13 13 13 13 12 12 12 13
13 13 12 11 11 11 12 12 12 13 14 15 15 15 14 14 14 14 13 13 13 13 13 12 13 13 13 12 12 13 13 14 14 14 15 16 16 16 16 15 16 17 17 17 15 13 12 13 13 14 14 14 11 11 11 13 14 14 14 14 14 14 14 14 14 12 11 11 13
13 12 12 11 11 11 11 12 11 11 12 14 14 14 13 13 13 13 14 14 14 13 12 12 13 13 13 12 12 12 13 14 15 15 14 15 15 16 16 15 16 16 17 16 15 13 13 13 14 15 15 15 13 12 12 14 14 15 15 16 15 15 15 15 14 13 12 12 13
13 12 12 12 11 11 11 11 11 11 12 13 13 13 12 12 13 13 13 14 14 13 12 11 12 12 12 13 13 13 14 14 15 15 15 15 15 15 15 15 15 16 16 14 15 15 14 14 15 16 16 16 15 14 14 14 15 15 15 16 16 16 15 15 14 14 13 14 14
13 13 13 12 12 12 11 12 11 11 12 13 13 12 12 11 12 12 13 13 13 13 12 11 11 11 12 14 14 14 14 14 15 15 15 15 15 16 15 15 15 15 15 14 14 15 16 16 16 16 16 16 16 15 15 15 15 15 15 16 16 16 15 14 14 14 14 15 14
13 13 13 13 13 13 12 12 11 11 12 13 12 12 12 11 11 11 12 13 12 12 11 12 11 11 12 13 14 15 15 15 15 15 15 15 16 16 16 15 15 15 15 15 15 15 15 16 16 16 16 16 16 16 15 16 16 16 16 16 15 15 15 15 14 14 14 15 15
13 14 14 14 15 15 14 14 12 12 12 13 13 13 12 11 10 11 12 13 11 11 12 13 11 11 11 13 14 14 14 14 14 15 15 15 15 16 16 16 16 16 16 16 16 16 16 15 15 15 15 15 15 15 16 16 16 16 16 16 15 15 15 15 14 14 14 15 15
14 14 14 15 16 16 16 16 14 14 14 15 14 13 13 12 11 12 12 13 13 13 13 14 12 12 12 13 13 13 13 13 14 14 14 15 15 15 16 16 16 16 16 16 16 17 17 16 15 15 14 15 15 15 15 16 15 15 15 15 15 15 14 14 14 14 14 14 15
15 15 15 16 16 16 16 16 16 15 15 15 14 13 13 13 13 13 13 13 14 14 15 14 13 13 13 14 13 13 13 13 14 14 15 14 15 15 16 16 16 16 16 16 16 16 17 17 16 16 15 15 15 15 15 15 15 15 15 15 15 14 14 14 14 13 14 15 15
15 16 16 16 16 16 16 16 16 15 14 14 14 14 14 14 14 14 14 14 15 15 15 15 15 14 14 15 14 14 13 13 14 14 15 15 15 15 16 16 16 16 16 16 16 16 16 17 17 17 17 16 16 15 15 15 14 14 14 13 14 14 14 14 14 14 14 15 15
16 16 16 16 16 15 15 15 15 14 14 14 14 15 15 15 15 15 15 15 15 15 16 16 16 16 15 16 16 15 14 13 13 14 14 15 15 16 16 16 16 16 16 16 16 16 16 17 17 17 17 17 16 16 15 14 14 14 14 13 13 14 14 14 15 15 15 16 16
15 15 14 14 14 14 14 14 13 13 14 14 14 15 15 15 15 15 15 15 15 15 16 16 16 16 16 16 16 16 15 13 14 14 14 14 15 16 16 15 16 16 16 16 16 17 17 17 17 17 16 16 15 15 15 15 14 15 15 15 14 14 15 15 15 15 16 16 16
14 13 12 12 13 13 13 13 13 13 14 14 14 15 15 15 15 15 15 15 15 15 16 15 16 16 16 16 16 16 15 14 14 15 15 15 15 15 16 15 16 17 17 17 17 17 17 16 17 16 16 15 15 15 15 15 14 14 14 15 15 15 15 15 15 15 15 16 16
12 11 10 9 11 12 12 12 12 13 14 14 14 15 15 15 15 15 15 15 15 16 15 14 14 15 16 16 16 16 16 16 16 16 17 17 16 17 16 15 16 17 17 15 16 17 17 15 15 15 15 14 14 14 15 15 14 14 14 14 15 15 15 15 15 15 16 16 15
11 11 10 10 10 11 11 11 12 12 13 13 13 14 14 14 14 14 15 16 16 16 16 15 14 14 15 15 16 17 17 18 18 18 18 18 18 18 17 16 16 15 15 14 20 23 23 19 16 14 13 13 13 13 13 14 14 14 13 13 14 14 14 15 15 16 16 16 15
11 11 11 11 11 11 11 11 11 11 12 12 12 13 13 13 13 14 15 16 16 16 16 16 15 14 14 14 16 17 17 18 18 19 19 19 19 19 18 16 14 13 13 16 23 28 28 26 22 18 14 12 13 13 12 13 14 14 14 13 14 14 14 14 15 16 16 15 15
11 11 11 10 11 11 12 12 11 11 11 11 12 12 13 12 12 13 14 14 15 15 15 14 14 14 14 14 16 17 17 17 17 18 19 19 19 19 19 16 14 12 13 19 26 29 31 30 28 24 19 13 13 12 12 12 13 13 13 13 13 14 14 14 15 15 15 15 15
11 11 10 10 11 12 12 12 12 12 13 13 13 13 13 13 13 13 13 13 13 13 13 12 12 12 11 11 14 16 17 16 16 17 17 18 19 19 19 16 14 14 16 22 27 30 31 31 30 28 24 17 13 12 12 12 12 12 12 12 13 14 14 15 14 14 14 15 15
11 11 11 11 12 12 12 12 13 13 13 13 13 13 13 13 14 14 14 13 14 13 12 11 10 10 10 11 13 14 15 16 16 15 16 17 18 19 18 17 16 16 19 26 28 30 31 31 31 30 27 22 14 11 10 11 11 11 11 11 12 13 14 14 14 13 14 14 14
11 11 11 12 12 12 12 12 13 13 13 12 12 13 14 14 14 15 15 15 15 14 13 11 11 11 13 14 13 14 14 15 15 15 16 17 18 18 18 18 16 17 20 27 29 30 31 31 31 30 29 27 18 13 10 11 11 11 11 11 13 14 15 15 15 15 14 14 14
11 11 12 12 12 12 12 12 12 12 12 12 12 13 14 14 15 15 15 15 15 14 14 13 14 15 15 15 14 14 15 15 15 16 17 18 18 19 19 19 18 17 20 26 29 31 31 31 31 31 30 29 21 15 12 12 12 12 12 12 13 15 15 15 15 16 16 15 14
11 12 12 13 13 13 13 12 12 12 12 13 14 14 15 15 15 15 15 14 14 15 15 16 16 17 16 16 16 16 16 16 16 17 17 17 18 19 19 19 19 18 20 26 29 30 31 31 31 30 30 30 23 17 14 13 13 13 13 14 15 16 16 14 14 15 16 16 15
12 12 13 13 13 13 13 12 12 12 12 13 14 15 15 15 14 14 14 13 14 15 16 17 17 17 17 17 17 17 17 17 17 18 18 18 18 19 19 19 18 19 21 26 29 30 31 31 31 30 30 30 23 18 15 14 13 12 12 13 15 16 16 16 15 15 15 16 15
11 12 13 14 13 13 13 12 12 12 12 13 14 14 14 14 13 13 13 13 13 13 14 15 16 16 16 16 16 17 17 16 16 17 18 19 19 20 20 18 15 17 22 27 29 30 30 31 30 30 30 30 21 17 16 16 14 13 13 14 15 15 16 16 16 16 15 15 14
11 12 13 14 13 13 12 12 12 12 13 14 14 14 14 13 13 13 13 13 12 13 13 13 14 14 14 15 16 16 17 16 16 17 18 18 19 20 20 20 17 19 23 27 29 30 30 30 30 30 29 26 18 15 15 16 15 15 15 15 16 16 16 15 15 15 15 15 15
11 12 13 13 13 13 13 12 12 13 13 14 14 14 13 13 13 13 12 12 12 13 13 13 13 14 14 15 15 16 16 17 17 17 18 18 19 20 21 21 19 21 24 27 29 30 30 30 30 29 27 22 15 13 14 14 14 15 16 16 16 16 16 15 14 14 14 14 14
12 12 13 13 13 13 13 12 13 13 14 14 14 14 14 14 13 12 12 12 12 13 13 13 14 15 15 15 15 15 16 16 17 17 18 18 19 20 21 21 20 21 24 27 28 29 30 30 30 29 26 19 14 13 13 12 12 13 14 16 16 16 16 14 13 13 13 14 14
12 12 13 13 13 13 13 13 13 14 14 14 14 14 13 13 12 12 12 12 12 13 14 14 15 15 15 15 15 15 16 16 17 18 18 19 19 20 20 20 20 20 22 25 28 29 30 30 30 29 25 17 15 13 12 11 11 12 12 13 13 14 14 12 11 12 12 14 16
11 12 12 13 13 13 13 13 14 14 14 14 14 13 13 12 12 11 12 12 13 14 14 14 15 15 15 15 14 15 16 16 17 18 18 18 19 19 20 20 19 19 20 23 27 28 29 30 30 29 26 19 15 13 11 10 11 12 12 11 11 12 13 12 11 10 11 14 17
12 12 12 13 13 13 14 14 14 14 13 13 13 13 13 12 12 11 11 12 13 13 14 14 15 15 14 14 14 15 16 16 17 18 18 18 19 20 20 20 19 19 20 23 26 28 29 29 30 29 27 18 15 12 10 10 11 12 12 11 10 10 11 11 10 10 10 12 15
12 12 12 13 13 13 13 14 14 14 13 12 13 12 12 11 11 11 11 11 12 13 12 12 14 14 15 14 14 14 16 16 17 17 18 19 19 19 20 19 19 19 19 21 25 27 28 29 30 30 27 18 14 12 10 10 10 12 12 12 11 10 9 10 9 9 10 11 11
Wind_Direction
225 224 224 223 223 224 226 229 227 226 224 221 217 213 209 209 212 212 209 206 208 209 208 207 205 202 199 196 195 196 197 199 200 201 202 201 200 198 196 195 195 195 195 196 194 193 193 194 195 196 199 202 205 207 207 206 208 210 212 214 218 221 225 227 230 231 232 233 234
225 225 225 224 224 224 225 226 226 225 223 222 221 217 213 211 213 213 212 209 208 208 207 208 205 202 199 198 196 196 196 198 200 201 202 203 201 199 197 196 195 194 194 194 193 192 192 193 194 195 198 200 204 205 206 204 206 210 214 216 218 221 224 227 229 231 232 233 233
225 225 224 224 222 221 221 222 223 222 223 223 221 218 216 214 215 215 215 212 210 208 207 207 203 201 199 198 196 195 196 197 198 199 201 203 202 200 198 197 195 194 194 193 192 191 191 191 193 195 196 198 201 203 205 204 205 210 215 217 218 219 222 225 227 229 229 230 230
224 224 224 224 223 222 222 222 222 221 221 221 220 219 217 216 216 217 217 215 212 210 209 206 203 200 198 197 196 195 195 195 195 197 200 202 201 200 199 198 196 194 193 192 192 192 192 191 192 195 197 199 201 203 203 202 203 207 213 216 217 218 220 223 224 225 226 228 228
224 223 222 223 223 223 223 223 223 222 220 219 218 217 215 214 215 217 217 216 214 212 209 206 203 200 197 196 195 194 194 193 194 196 198 201 201 200 199 198 196 195 193 192 192 192 192 191 192 195 197 199 201 202 202 200 202 206 210 213 215 216 219 221 222 222 223 225 224
224 223 222 223 223 224 224 224 223 222 221 217 217 216 215 212 213 214 216 217 216 214 210 207 203 200 197 195 194 193 192 192 193 195 197 200 200 200 199 198 197 194 193 192 192 191 191 191 192 195 197 199 203 204 203 200 203 206 209 212 213 214 217 219 220 221 221 222 223
225 223 222 222 221 221 222 222 222 222 221 220 219 218 217 214 214 216 217 218 216 213 210 206 203 199 196 193 193 192 191 192 193 195 196 199 200 199 198 197 196 194 192 191 191 191 191 191 192 194 196 198 201 202 202 201 203 206 210 213 213 214 216 219 220 221 223 224 224
227 225 222 221 220 220 220 220 220 220 221 221 221 220 219 217 217 217 218 218 217 213 208 205 202 199 196 192 192 192 192 192 194 195 196 199 199 199 197 195 194 193 192 191 190 190 190 191 193 194 196 197 199 200 200 200 203 207 211 214 215 215 215 216 218 221 223 225 225
229 226 223 221 219 219 219 219 219 221 222 223 223 222 221 219 218 218 219 220 217 212 208 205 203 200 197 194 194 193 193 193 195 196 197 199 199 198 196 193 192 192 191 190 190 190 190 190 193 195 196 197 198 197 197 197 202 207 212 216 217 218 217 217 217 220 223 225 225
229 227 224 222 220 219 218 218 220 222 225 227 226 225 223 221 220 219 219 220 217 213 208 205 202 200 199 197 196 195 195 195 196 197 198 198 198 197 194 192 191 190 190 190 190 189 190 191 194 196 197 198 198 197 196 195 200 205 210 215 218 219 220 220 219 220 222 224 225
229 227 224 222 219 218 217 218 221 223 225 228 227 226 224 223 221 219 218 218 217 214 210 205 202 201 200 199 198 197 196 196 197 198 198 199 198 196 193 191 190 189 189 188 187 187 189 192 194 195 197 198 197 197 197 196 199 204 209 215 217 220 221 222 221 221 222 224 226
229 227 224 221 217 214 214 216 219 222 225 227 227 227 225 224 221 219 217 216 217 215 212 205 203 202 202 200 199 198 198 199 199 199 200 199 197 195 193 191 190 189 189 187 185 185 187 191 192 194 196 197 196 196 197 198 201 205 210 215 217 219 221 222 222 222 223 224 227
228 226 223 219 213 210 210 213 216 220 223 225 226 226 225 224 221 219 217 216 217 215 212 207 205 204 203 202 200 200 200 200 200 200 200 199 197 195 193 192 191 190 189 187 185 185 187 190 191 193 195 196 196 196 197 198 202 206 211 214 217 219 220 221 221 222 223 225 227
227 224 221 216 210 207 207 210 213 217 220 223 224 224 224 224 221 218 216 216 216 215 212 208 206 205 205 203 202 201 201 202 201 201 200 199 196 194 193 191 190 190 189 187 186 186 187 190 192 193 195 197 198 198 198 199 203 207 211 214 216 218 220 220 220 221 223 225 228
226 223 220 215 209 207 207 208 211 214 217 220 221 221 220 221 219 217 216 216 215 214 211 208 207 207 206 205 204 204 203 203 202 201 200 199 196 194 192 190 190 190 189 187 187 187 189 190 192 194 195 197 198 199 199 201 205 208 211 214 216 217 219 219 219 220 221 224 228
226 223 219 214 211 209 209 207 210 212 214 216 216 215 215 216 215 214 214 214 213 213 211 209 207 206 206 206 206 206 205 204 202 201 199 198 196 194 192 190 189 189 189 187 188 189 190 191 193 195 196 197 198 200 202 204 207 210 212 214 216 217 218 219 218 219 221 223 226
224 221 218 215 213 212 211 210 210 210 211 212 210 209 210 211 210 211 210 210 210 211 211 209 207 206 206 208 207 206 206 205 203 201 199 198 195 193 191 190 189 189 189 188 188 189 191 192 194 195 196 197 199 201 204 206 208 210 212 214 215 217 218 218 218 218 220 223 226
223 221 218 216 215 215 214 212 211 211 210 208 206 205 205 205 205 206 207 207 207 208 209 209 207 206 206 207 206 205 204 204 203 201 199 197 195 193 192 190 189 190 190 190 190 190 190 191 193 194 196 198 201 204 206 207 208 210 211 213 215 217 218 218 218 218 220 223 226
224 221 219 218 217 217 216 214 214 212 210 207 204 202 202 202 202 203 204 205 205 205 206 207 206 206 206 206 205 204 203 203 203 201 200 197 195 194 193 192 190 190 191 191 191 191 190 191 192 194 196 200 203 206 207 208 209 210 211 213 215 216 217 218 218 219 221 224 227
225 222 220 219 218 218 217 216 216 214 211 208 204 202 200 200 200 201 203 204 204 204 204 205 205 206 205 204 203 203 203 202 201 201 200 197 196 195 194 192 191 191 192 192 192 192 191 191 192 194 197 200 203 206 207 208 209 210 211 213 215 216 217 218 219 220 223 226 229
228 225 222 220 219 218 218 217 217 215 213 211 207 204 201 200 201 202 203 203 203 204 205 206 205 205 204 202 202 202 202 201 200 200 199 198 197 197 195 192 191 191 192 192 193 192 192 192 193 195 197 200 202 204 205 206 208 210 211 213 215 217 218 218 219 221 223 227 229
234 230 227 224 222 219 218 216 216 214 213 212 209 205 203 201 202 202 202 202 203 204 206 207 207 206 204 202 201 201 201 201 200 200 199 199 199 198 196 193 191 191 192 193 193 193 193 194 194 195 196 199 201 203 204 205 207 209 212 214 216 217 218 219 220 222 224 227 229
243 240 236 232 228 224 220 217 215 214 213 212 210 207 205 203 202 201 201 200 203 205 207 209 208 207 205 203 202 201 200 201 201 200 200 199 199 198 196 194 193 193 194 194 194 193 193 194 195 195 196 198 200 202 204 205 207 209 211 214 216 217 219 220 221 223 225 227 229
249 247 243 240 235 230 226 221 217 216 215 213 211 209 207 205 202 200 200 200 203 204 205 207 207 206 205 203 202 201 200 201 201 201 201 200 199 197 196 195 195 195 195 195 194 193 192 193 194 195 196 198 200 202 204 205 207 208 210 213 215 217 219 221 222 224 226 228 230
251 248 246 244 240 236 231 227 223 221 220 218 215 212 210 207 203 201 200 201 203 204 204 205 205 204 203 202 202 202 202 202 202 201 201 200 199 198 197 196 197 197 197 197 197 196 195 193 192 192 194 196 200 202 205 206 208 209 210 212 214 217 220 223 224 226 227 229 230
253 249 244 241 239 237 234 230 228 227 226 224 221 217 214 210 206 204 203 204 204 204 204 204 204 203 202 202 202 203 203 204 204 203 201 201 200 199 198 199 198 198 198 200 200 199 199 197 194 192 191 193 197 200 203 206 208 209 211 213 215 218 221 224 226 227 228 229 229
255 250 244 239 238 236 234 231 229 228 227 225 223 220 217 212 209 207 206 206 205 204 205 205 206 205 205 205 205 205 206 206 206 205 204 203 201 201 201 201 200 199 199 201 202 202 201 200 197 194 191 191 194 198 200 204 205 207 210 213 217 219 222 226 228 230 230 231 230
255 252 247 242 238 236 235 232 230 228 225 223 221 220 217 214 212 210 208 207 205 205 205 206 207 207 208 210 209 209 209 209 209 209 208 207 205 204 203 204 202 201 200 202 204 204 204 202 200 197 193 190 192 196 200 202 203 205 208 213 217 220 223 227 230 231 232 233 232
259 256 251 246 242 239 236 233 231 229 226 223 221 219 217 214 213 212 209 207 206 205 205 205 204 206 210 213 213 212 211 212 212 212 212 211 210 209 208 208 206 205 203 203 205 206 206 205 203 200 196 191 190 193 198 201 203 205 208 212 215 219 222 225 228 230 231 232 232
260 258 254 250 247 243 238 234 232 230 228 225 221 219 217 216 214 212 210 208 207 206 204 202 202 206 210 212 212 211 211 212 212 213 214 214 213 213 212 211 210 208 206 205 207 208 208 207 205 203 199 194 191 191 196 200 203 206 209 212 215 218 220 223 225 226 228 229 231
261 259 257 254 251 247 242 237 233 230 227 224 221 219 218 217 216 214 212 210 209 207 206 204 205 208 209 210 210 210 210 211 211 213 214 215 215 215 215 215 213 211 209 208 209 209 209 208 207 205 202 198 194 193 195 199 203 207 211 213 215 217 219 222 223 224 225 227 229
263 260 258 256 254 250 247 241 236 230 227 224 222 220 220 219 218 216 214 211 210 209 208 207 208 209 210 210 211 211 210 210 210 212 213 215 216 217 217 217 215 213 212 211 211 211 210 209 208 207 205 202 199 196 195 199 203 208 213 216 218 219 219 221 222 224 225 227 228
261 260 258 256 255 252 249 244 238 233 229 226 225 223 223 222 220 218 216 214 211 210 210 210 210 210 210 210 211 211 211 210 211 212 213 214 216 217 218 218 217 215 214 213 213 213 212 211 209 208 207 206 203 199 197 200 204 209 214 217 219 221 222 224 225 226 227 229 230
257 259 259 257 256 254 250 245 239 235 232 230 229 228 226 224 222 220 217 215 214 214 214 213 212 212 211 211 211 212 212 212 211 212 213 214 216 217 218 219 218 216 214 215 215 215 214 212 211 209 209 208 206 204 202 204 207 211 215 218 220 222 224 226 228 230 231 232 233
253 256 258 258 257 254 251 246 240 236 234 233 233 231 228 225 223 222 220 218 218 218 218 217 216 215 215 215 214 214 214 214 213 212 212 213 216 218 219 220 220 217 215 216 216 216 215 213 212 210 209 208 208 207 207 208 211 214 217 219 222 223 225 226 229 232 234 235 236
255 256 257 258 257 255 252 247 242 237 235 234 233 231 229 227 225 224 222 220 221 221 221 219 218 218 218 218 217 217 216 216 215 214 214 214 215 218 220 221 221 219 217 217 217 217 216 214 212 211 209 207 207 208 209 211 213 216 219 221 224 225 226 226 228 231 234 236 236
258 257 256 257 256 254 251 246 242 239 237 235 233 231 229 228 227 225 222 219 221 222 222 220 219 219 219 218 218 218 218 217 217 216 216 215 216 218 220 222 221 220 218 217 218 217 216 215 213 211 208 206 206 207 209 211 214 217 220 223 226 227 228 228 228 230 232 233 234
257 255 254 254 254 252 249 245 242 240 238 237 235 232 229 227 226 224 221 218 220 222 222 222 221 220 220 219 220 220 220 219 218 219 219 218 217 218 220 222 222 220 219 218 218 218 217 215 213 211 208 205 204 205 207 209 213 216 219 222 225 227 228 229 229 229 229 229 230
262 255 251 250 250 250 248 245 242 240 239 238 236 233 230 226 224 222 219 217 219 221 223 224 222 221 220 219 220 221 221 220 220 220 221 221 220 220 220 222 222 220 219 218 219 218 218 216 214 211 208 206 204 204 205 208 211 214 217 220 223 226 227 228 228 229 228 227 229
273 262 253 248 247 247 246 245 243 241 239 238 236 234 230 226 224 222 219 218 219 221 224 225 224 223 220 219 220 222 222 221 221 221 222 223 223 222 221 222 222 221 219 219 219 219 218 217 215 212 209 206 204 203 204 206 210 213 215 217 220 222 225 226 226 227 228 228 229
282 272 262 253 248 246 245 245 244 242 239 237 235 233 230 226 224 222 220 219 220 221 223 226 226 224 222 220 221 222 223 223 221 221 222 223 224 223 223 223 223 222 220 219 219 220 219 218 216 212 209 205 202 202 203 204 208 211 213 215 216 218 221 223 224 226 228 229 231